Retour au catalogue

STARLINK-3738

ActifCommunicationsVLEO
NORAD 52117·PAYLOAD·🇺🇸 United States

Lancé Mar 19, 2022 depuis Cape Canaveral Space Force Station

Loading…

Prochains Passages (prochaines 24 heures)

TLE

FraisSource: CelesTrak SupGP

Époque: Sep 14, 2026, 20:45 UTC

1 52117C 22029AF  26257.86506944 -.00006781  00000+0 -20039-3 0  2572
2 52117  53.1577 295.7069 0001241  80.6449 164.3453 15.34388422    10

Suivez STARLINK-3738 en temps réel avec AllMySat

Download on the App Store